,,,PA_Meas_PMT16A,,PR_Meas_QMR101_102,,RH_Meas_QMH101,,SR_Meas_QMS101,,TA_Meas_QMH101,,GenWind,,GenWind,
date,time,status,PA,status,PR,status,RH,status,SR,status,TA,status,DirAvg,status,SpdAvg,
2014-01-08, 00:00:04,VALID,1010.7,VALID,0,VALID,104,VALID,0,VALID,23.9473,VALID,108,VALID,0,
2014-01-08, 00:01:04,VALID,1010.71,VALID,0,VALID,104,VALID,0,VALID,23.9473,VALID,108,VALID,0,
2014-01-08, 00:02:04,VALID,1010.66,VALID,0,VALID,104,VALID,0,VALID,23.9473,VALID,108,VALID,0,
2014-01-08, 00:03:04,VALID,1010.65,VALID,0,VALID,104,VALID,0,VALID,23.9473,VALID,108,VALID,0,
2014-01-08, 00:04:04,VALID,1010.63,VALID,0,VALID,104,VALID,0.112112,VALID,23.9084,VALID,108,VALID,0,
2014-01-08, 00:05:04,VALID,1010.63,VALID,0,VALID,104,VALID,0,VALID,23.9084,VALID,108,VALID,0,
2014-01-08, 00:06:04,VALID,1010.61,VALID,0,VALID,104,VALID,0,VALID,23.8889,VALID,108,VALID,0,
2014-01-08, 00:07:04,VALID,1010.59,VALID,0.5,VALID,104,VALID,0,VALID,23.9084,VALID,108,VALID,0,
2014-01-08, 00:08:04,VALID,1010.6,VALID,0,VALID,104,VALID,0,VALID,23.9102,VALID,108,VALID,0,
2014-01-08, 00:09:04,VALID,1010.58,VALID,0,VALID,104,VALID,0,VALID,23.8712,VALID,108,VALID,0,
2014-01-08, 00:10:04,VALID,1010.59,VALID,0,VALID,104,VALID,0,VALID,23.8304,VALID,108,VALID,0,
2014-01-08, 00:11:04,VALID,1010.62,VALID,0,VALID,104,VALID,0,VALID,23.8304,VALID,108,VALID,0,
2014-01-08, 00:12:04,VALID,1010.61,VALID,0,VALID,104,VALID,0,VALID,23.8304,VALID,108,VALID,0,
2014-01-08, 00:13:04,VALID,1010.63,VALID,0,VALID,104,VALID,0,VALID,23.8304,VALID,108,VALID,0,
2014-01-08, 00:14:04,VALID,1010.6,VALID,0,VALID,104,VALID,0,VALID,23.8304,VALID,108,VALID,0,
2014-01-08, 00:15:04,VALID,1010.59,VALID,0,VALID,104,VALID,0,VALID,23.8517,VALID,108,VALID,0,
2014-01-08, 00:16:04,VALID,1010.55,VALID,0,VALID,104,VALID,0,VALID,23.8304,VALID,108,VALID,0,
2014-01-08, 00:17:04,VALID,1010.53,VALID,0,VALID,104,VALID,0,VALID,23.8109,VALID,108,VALID,0,
2014-01-08, 00:18:04,VALID,1010.51,VALID,0,VALID,104,VALID,0,VALID,23.7914,VALID,108,VALID,0,
2014-01-08, 00:19:04,VALID,1010.53,VALID,0,VALID,104,VALID,0,VALID,23.7914,VALID,108,VALID,0,
2014-01-08, 00:20:04,VALID,1010.51,VALID,0,VALID,104,VALID,0,VALID,23.772,VALID,108,VALID,0,
2014-01-08, 00:21:04,VALID,1010.51,VALID,0,VALID,104,VALID,0,VALID,23.772,VALID,108,VALID,0,
2014-01-08, 00:22:04,VALID,1010.51,VALID,0,VALID,104,VALID,0,VALID,23.7738,VALID,108,VALID,0,
2014-01-08, 00:23:04,VALID,1010.5,VALID,0,VALID,104,VALID,0,VALID,23.772,VALID,108,VALID,0,
2014-01-08, 00:24:04,VALID,1010.46,VALID,0,VALID,104,VALID,0,VALID,23.772,VALID,108,VALID,0,
2014-01-08, 00:25:04,VALID,1010.44,VALID,0,VALID,104,VALID,0,VALID,23.772,VALID,108,VALID,0,
2014-01-08, 00:26:04,VALID,1010.44,VALID,0,VALID,104,VALID,0,VALID,23.7914,VALID,108,VALID,0,
2014-01-08, 00:27:04,VALID,1010.43,VALID,0,VALID,104,VALID,0,VALID,23.7914,VALID,108,VALID,0,
2014-01-08, 00:28:04,VALID,1010.41,VALID,0,VALID,104,VALID,0,VALID,23.7914,VALID,108,VALID,0,
2014-01-08, 00:29:04,VALID,1010.44,VALID,0,VALID,104,VALID,0,VALID,23.772,VALID,108,VALID,0,
2014-01-08, 00:30:04,VALID,1010.39,VALID,0,VALID,104,VALID,0,VALID,23.772,VALID,108,VALID,0,
2014-01-08, 00:31:04,VALID,1010.4,VALID,0,VALID,104,VALID,0,VALID,23.772,VALID,107,VALID,0,
2014-01-08, 00:32:04,VALID,1010.37,VALID,0,VALID,104,VALID,0,VALID,23.7525,VALID,108,VALID,0,
2014-01-08, 00:33:04,VALID,1010.37,VALID,0,VALID,104,VALID,0,VALID,23.772,VALID,108,VALID,0,
2014-01-08, 00:34:04,VALID,1010.35,VALID,0,VALID,104,VALID,0,VALID,23.7932,VALID,108,VALID,0,
2014-01-08, 00:35:04,VALID,1010.34,VALID,0,VALID,104,VALID,0,VALID,23.772,VALID,108,VALID,0,
2014-01-08, 00:36:04,VALID,1010.34,VALID,0,VALID,104,VALID,0,VALID,23.772,VALID,108,VALID,0,
2014-01-08, 00:37:04,VALID,1010.33,VALID,0,VALID,104,VALID,0,VALID,23.772,VALID,108,VALID,0,
2014-01-08, 00:38:04,VALID,1010.33,VALID,0,VALID,104,VALID,0,VALID,23.772,VALID,108,VALID,0,
2014-01-08, 00:39:04,VALID,1010.29,VALID,0,VALID,104,VALID,0,VALID,23.7914,VALID,107,VALID,0,
2014-01-08, 00:40:04,VALID,1010.26,VALID,0,VALID,104,VALID,0,VALID,23.772,VALID,107,VALID,0,
2014-01-08, 00:41:04,VALID,1010.27,VALID,0,VALID,104,VALID,0,VALID,23.8109,VALID,108,VALID,0,
2014-01-08, 00:42:04,VALID,1010.24,VALID,0,VALID,104,VALID,0,VALID,23.8109,VALID,108,VALID,0,
2014-01-08, 00:43:04,VALID,1010.22,VALID,0,VALID,104,VALID,0,VALID,23.7914,VALID,108,VALID,0,
2014-01-08, 00:44:04,VALID,1010.21,VALID,0,VALID,104,VALID,0,VALID,23.7914,VALID,108,VALID,0,
2014-01-08, 00:45:04,VALID,1010.21,VALID,0,VALID,104,VALID,0,VALID,23.8322,VALID,108,VALID,0,
2014-01-08, 00:46:04,VALID,1010.18,VALID,0,VALID,104,VALID,0,VALID,23.7914,VALID,108,VALID,0,
2014-01-08, 00:47:04,VALID,1010.2,VALID,0,VALID,104,VALID,0,VALID,23.8109,VALID,108,VALID,0,
2014-01-08, 00:48:04,VALID,1010.17,VALID,0,VALID,104,VALID,0,VALID,23.8304,VALID,107,VALID,0,
2014-01-08, 00:49:04,VALID,1010.13,VALID,0,VALID,104,VALID,0,VALID,23.8481,VALID,108,VALID,0,
2014-01-08, 00:50:04,VALID,1010.13,VALID,0,VALID,104,VALID,0,VALID,23.8286,VALID,107,VALID,0,
2014-01-08, 00:51:04,VALID,1010.13,VALID,0,VALID,104,VALID,0,VALID,23.8304,VALID,108,VALID,0,
2014-01-08, 00:52:04,VALID,1010.12,VALID,0,VALID,104,VALID,0,VALID,23.7896,VALID,108,VALID,0,
2014-01-08, 00:53:04,VALID,1010.13,VALID,0,VALID,104,VALID,0,VALID,23.8304,VALID,108,VALID,0,
2014-01-08, 00:54:04,VALID,1010.11,VALID,0,VALID,104,VALID,0,VALID,23.8304,VALID,108,VALID,0,
2014-01-08, 00:55:04,VALID,1010.08,VALID,0,VALID,104,VALID,0,VALID,23.8499,VALID,108,VALID,0,
2014-01-08, 00:56:04,VALID,1010.03,VALID,0,VALID,104,VALID,0,VALID,23.8304,VALID,108,VALID,0,
2014-01-08, 00:57:04,VALID,1010.01,VALID,0,VALID,104,VALID,0,VALID,23.8304,VALID,108,VALID,0,
2014-01-08, 00:58:04,VALID,1009.96,VALID,0,VALID,104,VALID,0,VALID,23.8109,VALID,108,VALID,0,
2014-01-08, 00:59:04,VALID,1009.96,VALID,0,VALID,104,VALID,0,VALID,23.7914,VALID,108,VALID,0,
2014-01-08, 01:00:04,VALID,1009.91,VALID,0,VALID,104,VALID,0,VALID,23.7914,VALID,108,VALID,0.844922,
2014-01-08, 01:01:04,VALID,1009.89,VALID,0,VALID,104,VALID,0,VALID,23.7914,VALID,108,VALID,0.466797,
2014-01-08, 01:02:04,VALID,1009.87,VALID,0,VALID,104,VALID,0,VALID,23.8109,VALID,108,VALID,0,
2014-01-08, 01:03:04,VALID,1009.86,VALID,0,VALID,104,VALID,0,VALID,23.7914,VALID,108,VALID,0,
2014-01-08, 01:04:04,VALID,1009.84,VALID,0,VALID,104,VALID,0,VALID,23.7914,VALID,108,VALID,0,
2014-01-08, 01:05:04,VALID,1009.83,VALID,0,VALID,104,VALID,0,VALID,23.8109,VALID,108,VALID,0,
2014-01-08, 01:06:04,VALID,1009.83,VALID,0,VALID,104,VALID,0,VALID,23.8109,VALID,108,VALID,0,
2014-01-08, 01:07:04,VALID,1009.84,VALID,0,VALID,104,VALID,0,VALID,23.7914,VALID,108,VALID,0,
2014-01-08, 01:08:04,VALID,1009.83,VALID,0,VALID,104,VALID,0,VALID,23.7701,VALID,108,VALID,0.665625,
2014-01-08, 01:09:04,VALID,1009.85,VALID,0,VALID,104,VALID,0,VALID,23.7914,VALID,107,VALID,0.706641,
2014-01-08, 01:10:04,VALID,1009.88,VALID,0,VALID,104,VALID,0,VALID,23.7914,VALID,108,VALID,0,
2014-01-08, 01:11:04,VALID,1009.86,VALID,0,VALID,104,VALID,0,VALID,23.772,VALID,108,VALID,0,
2014-01-08, 01:12:04,VALID,1009.87,VALID,0,VALID,104,VALID,0,VALID,23.772,VALID,108,VALID,0,
2014-01-08, 01:13:04,VALID,1009.83,VALID,0,VALID,104,VALID,0,VALID,23.7525,VALID,107,VALID,0,
2014-01-08, 01:14:04,VALID,1009.83,VALID,0,VALID,104,VALID,0,VALID,23.733,VALID,107,VALID,0,
2014-01-08, 01:15:04,VALID,1009.8,VALID,0,VALID,104,VALID,0,VALID,23.733,VALID,108,VALID,0,
2014-01-08, 01:16:04,VALID,1009.81,VALID,0,VALID,104,VALID,0,VALID,23.7525,VALID,108,VALID,0,
2014-01-08, 01:17:04,VALID,1009.76,VALID,0,VALID,104,VALID,0,VALID,23.733,VALID,108,VALID,0,
2014-01-08, 01:18:04,VALID,1009.77,VALID,0,VALID,104,VALID,0,VALID,23.7525,VALID,108,VALID,0,
2014-01-08, 01:19:04,VALID,1009.72,VALID,0,VALID,104,VALID,0,VALID,23.7525,VALID,107,VALID,0,
2014-01-08, 01:20:04,VALID,1009.71,VALID,0,VALID,104,VALID,0,VALID,23.7525,VALID,108,VALID,0,
2014-01-08, 01:21:04,VALID,1009.69,VALID,0,VALID,104,VALID,0,VALID,23.7525,VALID,108,VALID,0,
2014-01-08, 01:22:04,VALID,1009.7,VALID,0,VALID,104,VALID,0,VALID,23.7117,VALID,108,VALID,0,
2014-01-08, 01:23:04,VALID,1009.69,VALID,0,VALID,104,VALID,0,VALID,23.733,VALID,108,VALID,0,
2014-01-08, 01:24:04,VALID,1009.69,VALID,0,VALID,104,VALID,0,VALID,23.733,VALID,107,VALID,0,
2014-01-08, 01:25:04,VALID,1009.66,VALID,0,VALID,104,VALID,0,VALID,23.7525,VALID,108,VALID,0,
2014-01-08, 01:26:04,VALID,1009.66,VALID,0,VALID,104,VALID,0,VALID,23.7525,VALID,108,VALID,0,
2014-01-08, 01:27:04,VALID,1009.62,VALID,0,VALID,104,VALID,0,VALID,23.7525,VALID,108,VALID,0,
2014-01-08, 01:28:04,VALID,1009.59,VALID,0,VALID,104,VALID,0,VALID,23.733,VALID,108,VALID,0,
2014-01-08, 01:29:04,VALID,1009.6,VALID,0,VALID,104,VALID,0,VALID,23.7117,VALID,108,VALID,0,
2014-01-08, 01:30:04,VALID,1009.54,VALID,0,VALID,104,VALID,0,VALID,23.7312,VALID,108,VALID,0,
2014-01-08, 01:31:04,VALID,1009.53,VALID,0,VALID,104,VALID,0,VALID,23.733,VALID,107,VALID,0,
2014-01-08, 01:32:04,VALID,1009.51,VALID,0,VALID,104,VALID,0,VALID,23.733,VALID,108,VALID,0,
2014-01-08, 01:33:04,VALID,1009.46,VALID,0,VALID,104,VALID,0,VALID,23.733,VALID,108,VALID,0,
2014-01-08, 01:34:04,VALID,1009.45,VALID,0,VALID,104,VALID,0,VALID,23.7117,VALID,108,VALID,0,
2014-01-08, 01:35:04,VALID,1009.44,VALID,0,VALID,104,VALID,0,VALID,23.733,VALID,108,VALID,0,
2014-01-08, 01:36:04,VALID,1009.43,VALID,0.5,VALID,104,VALID,0,VALID,23.733,VALID,108,VALID,0,
2014-01-08, 01:37:04,VALID,1009.43,VALID,0,VALID,104,VALID,0,VALID,23.7135,VALID,108,VALID,0,
2014-01-08, 01:38:04,VALID,1009.43,VALID,0,VALID,104,VALID,0,VALID,23.7135,VALID,108,VALID,0,
2014-01-08, 01:39:04,VALID,1009.44,VALID,0,VALID,104,VALID,0,VALID,23.694,VALID,108,VALID,0,
2014-01-08, 01:40:04,VALID,1009.43,VALID,0,VALID,104,VALID,0,VALID,23.694,VALID,108,VALID,0,
2014-01-08, 01:41:04,VALID,1009.44,VALID,0,VALID,104,VALID,0,VALID,23.7135,VALID,108,VALID,0,
2014-01-08, 01:42:04,VALID,1009.47,VALID,0,VALID,104,VALID,0,VALID,23.6727,VALID,105,VALID,0,
2014-01-08, 01:43:04,VALID,1009.45,VALID,0,VALID,104,VALID,0,VALID,23.655,VALID,105,VALID,0,
2014-01-08, 01:44:04,VALID,1009.43,VALID,0,VALID,104,VALID,0,VALID,23.655,VALID,105,VALID,0,
2014-01-08, 01:45:04,VALID,1009.42,VALID,0.5,VALID,104,VALID,0,VALID,23.6338,VALID,105,VALID,0,
2014-01-08, 01:46:04,VALID,1009.39,VALID,0,VALID,104,VALID,0,VALID,23.6356,VALID,105,VALID,0,
2014-01-08, 01:47:04,VALID,1009.36,VALID,0,VALID,104,VALID,0,VALID,23.6161,VALID,105,VALID,0,
2014-01-08, 01:48:04,VALID,1009.33,VALID,0,VALID,104,VALID,0,VALID,23.6356,VALID,105,VALID,0,
2014-01-08, 01:49:04,VALID,1009.29,VALID,0,VALID,104,VALID,0,VALID,23.6161,VALID,105,VALID,0,
2014-01-08, 01:50:04,VALID,1009.26,VALID,0,VALID,104,VALID,0,VALID,23.6161,VALID,105,VALID,0,
2014-01-08, 01:51:04,VALID,1009.22,VALID,0,VALID,104,VALID,0,VALID,23.6161,VALID,105,VALID,0,
2014-01-08, 01:52:04,VALID,1009.17,VALID,0,VALID,104,VALID,0,VALID,23.6161,VALID,105,VALID,0,
2014-01-08, 01:53:04,VALID,1009.2,VALID,0,VALID,104,VALID,0,VALID,23.5771,VALID,111,VALID,0.700781,
2014-01-08, 01:54:04,VALID,1009.18,VALID,0,VALID,104,VALID,0,VALID,23.5771,VALID,112,VALID,0.567969,
2014-01-08, 01:55:04,VALID,1009.17,VALID,0,VALID,104,VALID,0,VALID,23.5771,VALID,111,VALID,0.6875,
2014-01-08, 01:56:04,VALID,1009.12,VALID,0,VALID,104,VALID,0,VALID,23.5966,VALID,111,VALID,0.318359,
2014-01-08, 01:57:04,VALID,1009.12,VALID,0,VALID,104,VALID,0,VALID,23.5558,VALID,111,VALID,0.0589844,
2014-01-08, 01:58:04,VALID,1009.09,VALID,0,VALID,104,VALID,0,VALID,23.5381,VALID,111,VALID,0,
2014-01-08, 01:59:04,VALID,1009.06,VALID,0,VALID,104,VALID,0,VALID,23.5381,VALID,111,VALID,0,
2014-01-08, 02:00:04,VALID,1009.04,VALID,0,VALID,104,VALID,0,VALID,23.5594,VALID,111,VALID,0,
2014-01-08, 02:01:04,VALID,1009.05,VALID,0,VALID,104,VALID,0,VALID,23.5594,VALID,112,VALID,0,
2014-01-08, 02:02:04,VALID,1009,VALID,0,VALID,104,VALID,0,VALID,23.5381,VALID,111,VALID,0,
2014-01-08, 02:03:04,VALID,1008.98,VALID,0,VALID,104,VALID,0,VALID,23.5186,VALID,112,VALID,0,
2014-01-08, 02:04:04,VALID,1008.98,VALID,0,VALID,104,VALID,0,VALID,23.5381,VALID,112,VALID,0,
2014-01-08, 02:05:04,VALID,1008.96,VALID,0,VALID,104,VALID,0,VALID,23.4974,VALID,112,VALID,0.992578,
2014-01-08, 02:06:04,VALID,1008.96,VALID,0,VALID,104,VALID,0,VALID,23.4974,VALID,112,VALID,0.484375,
2014-01-08, 02:07:04,VALID,1009,VALID,0,VALID,104,VALID,0,VALID,23.5186,VALID,112,VALID,0,
2014-01-08, 02:08:04,VALID,1009.03,VALID,0,VALID,104,VALID,0,VALID,23.5186,VALID,111,VALID,0,
2014-01-08, 02:09:04,VALID,1009.04,VALID,0,VALID,104,VALID,0,VALID,23.4992,VALID,111,VALID,0,
2014-01-08, 02:10:04,VALID,1009.04,VALID,0,VALID,104,VALID,0,VALID,23.5381,VALID,112,VALID,0,
2014-01-08, 02:11:04,VALID,1009.06,VALID,0,VALID,104,VALID,0,VALID,23.5186,VALID,112,VALID,0,
2014-01-08, 02:12:04,VALID,1009.07,VALID,0,VALID,104,VALID,0,VALID,23.5186,VALID,112,VALID,0,
2014-01-08, 02:13:04,VALID,1009.08,VALID,0,VALID,104,VALID,0,VALID,23.5186,VALID,111,VALID,0,
2014-01-08, 02:14:04,VALID,1009.13,VALID,0,VALID,104,VALID,0,VALID,23.5399,VALID,112,VALID,0,
2014-01-08, 02:15:04,VALID,1009.11,VALID,0,VALID,104,VALID,0,VALID,23.5381,VALID,112,VALID,0,
2014-01-08, 02:16:04,VALID,1009.13,VALID,0,VALID,104,VALID,0,VALID,23.5381,VALID,112,VALID,0,
2014-01-08, 02:17:04,VALID,1009.14,VALID,0,VALID,104,VALID,0,VALID,23.5381,VALID,111,VALID,0,
2014-01-08, 02:18:04,VALID,1009.16,VALID,0,VALID,104,VALID,0.112112,VALID,23.5576,VALID,111,VALID,0,
2014-01-08, 02:19:04,VALID,1009.16,VALID,0,VALID,104,VALID,0,VALID,23.5576,VALID,112,VALID,0,
2014-01-08, 02:20:04,VALID,1009.16,VALID,0,VALID,104,VALID,0,VALID,23.5381,VALID,112,VALID,0,
2014-01-08, 02:21:04,VALID,1009.14,VALID,0,VALID,104,VALID,0,VALID,23.5381,VALID,112,VALID,0,
2014-01-08, 02:22:04,VALID,1009.14,VALID,0,VALID,104,VALID,0,VALID,23.5381,VALID,111,VALID,0,
2014-01-08, 02:23:04,VALID,1009.11,VALID,0,VALID,104,VALID,0,VALID,23.5381,VALID,111,VALID,0,
2014-01-08, 02:24:04,VALID,1009.07,VALID,0.5,VALID,104,VALID,0.112112,VALID,23.5186,VALID,111,VALID,0,
2014-01-08, 02:25:04,VALID,1009.08,VALID,0,VALID,104,VALID,0,VALID,23.5186,VALID,112,VALID,0,
2014-01-08, 02:26:04,VALID,1009.08,VALID,0,VALID,104,VALID,0,VALID,23.5186,VALID,112,VALID,0,
2014-01-08, 02:27:04,VALID,1009.07,VALID,0,VALID,104,VALID,0,VALID,23.4992,VALID,112,VALID,0,
2014-01-08, 02:28:04,VALID,1009.04,VALID,0,VALID,104,VALID,0,VALID,23.5186,VALID,111,VALID,0,
2014-01-08, 02:29:04,VALID,1009.03,VALID,0,VALID,104,VALID,0,VALID,23.5186,VALID,112,VALID,0,
2014-01-08, 02:30:04,VALID,1009.04,VALID,0,VALID,104,VALID,0,VALID,23.4992,VALID,112,VALID,0,
2014-01-08, 02:31:04,VALID,1009.04,VALID,0,VALID,104,VALID,0,VALID,23.4992,VALID,112,VALID,0,
2014-01-08, 02:32:04,VALID,1009.02,VALID,0,VALID,104,VALID,0,VALID,23.5186,VALID,112,VALID,0,
2014-01-08, 02:33:04,VALID,1009,VALID,0,VALID,104,VALID,0,VALID,23.4779,VALID,111,VALID,0,
2014-01-08, 02:34:04,VALID,1008.99,VALID,0,VALID,104,VALID,0,VALID,23.4992,VALID,111,VALID,0,
2014-01-08, 02:35:04,VALID,1009,VALID,0,VALID,104,VALID,0,VALID,23.4992,VALID,112,VALID,0,
2014-01-08, 02:36:04,VALID,1008.99,VALID,0,VALID,104,VALID,0,VALID,23.4797,VALID,112,VALID,0,
2014-01-08, 02:37:04,VALID,1008.97,VALID,0,VALID,104,VALID,0,VALID,23.4797,VALID,112,VALID,0,
2014-01-08, 02:38:04,VALID,1008.97,VALID,0,VALID,104,VALID,0,VALID,23.4584,VALID,112,VALID,0,
2014-01-08, 02:39:04,VALID,1008.96,VALID,0,VALID,104,VALID,0,VALID,23.4602,VALID,112,VALID,0,
2014-01-08, 02:40:04,VALID,1008.97,VALID,0,VALID,104,VALID,0,VALID,23.4389,VALID,112,VALID,0,
2014-01-08, 02:41:04,VALID,1008.99,VALID,0,VALID,104,VALID,0,VALID,23.4602,VALID,111,VALID,0,
2014-01-08, 02:42:04,VALID,1008.98,VALID,0,VALID,104,VALID,0,VALID,23.4407,VALID,111,VALID,0,
2014-01-08, 02:43:04,VALID,1008.96,VALID,0,VALID,104,VALID,0,VALID,23.4407,VALID,111,VALID,0,
2014-01-08, 02:44:04,VALID,1008.94,VALID,0,VALID,104,VALID,0,VALID,23.4602,VALID,112,VALID,0,
2014-01-08, 02:45:04,VALID,1008.94,VALID,0,VALID,104,VALID,0,VALID,23.4602,VALID,112,VALID,0,
2014-01-08, 02:46:04,VALID,1008.92,VALID,0,VALID,104,VALID,0,VALID,23.4602,VALID,111,VALID,0,
2014-01-08, 02:47:04,VALID,1008.9,VALID,0,VALID,104,VALID,0,VALID,23.4407,VALID,112,VALID,0,
2014-01-08, 02:48:04,VALID,1008.95,VALID,0,VALID,104,VALID,0,VALID,23.4407,VALID,112,VALID,0,
2014-01-08, 02:49:04,VALID,1008.94,VALID,0,VALID,104,VALID,0,VALID,23.4602,VALID,112,VALID,0,
2014-01-08, 02:50:04,VALID,1008.98,VALID,0,VALID,104,VALID,0,VALID,23.4212,VALID,112,VALID,0,
2014-01-08, 02:51:04,VALID,1008.99,VALID,0,VALID,104,VALID,0,VALID,23.4407,VALID,112,VALID,0,
2014-01-08, 02:52:04,VALID,1008.99,VALID,0,VALID,104,VALID,0,VALID,23.4407,VALID,111,VALID,0,
2014-01-08, 02:53:04,VALID,1008.97,VALID,0,VALID,104,VALID,0,VALID,23.4212,VALID,112,VALID,0,
2014-01-08, 02:54:04,VALID,1009,VALID,0,VALID,104,VALID,0,VALID,23.4212,VALID,112,VALID,0,
2014-01-08, 02:55:04,VALID,1009,VALID,0,VALID,104,VALID,0,VALID,23.4212,VALID,112,VALID,0,
2014-01-08, 02:56:04,VALID,1008.99,VALID,0,VALID,104,VALID,0,VALID,23.4212,VALID,112,VALID,0,
2014-01-08, 02:57:04,VALID,1009.03,VALID,0,VALID,104,VALID,0,VALID,23.4,VALID,112,VALID,0,
2014-01-08, 02:58:04,VALID,1009.06,VALID,0,VALID,104,VALID,0,VALID,23.4212,VALID,112,VALID,0,
2014-01-08, 02:59:04,VALID,1009.08,VALID,0,VALID,104,VALID,0,VALID,23.4,VALID,112,VALID,0,
2014-01-08, 03:00:04,VALID,1009.09,VALID,0,VALID,104,VALID,0,VALID,23.4212,VALID,112,VALID,0,
2014-01-08, 03:01:04,VALID,1009.09,VALID,0,VALID,104,VALID,0,VALID,23.4212,VALID,111,VALID,0,
2014-01-08, 03:02:04,VALID,1009.1,VALID,0,VALID,104,VALID,0,VALID,23.4407,VALID,112,VALID,0,
2014-01-08, 03:03:04,VALID,1009.08,VALID,0,VALID,104,VALID,0,VALID,23.4407,VALID,112,VALID,0,
2014-01-08, 03:04:04,VALID,1009.1,VALID,0,VALID,104,VALID,0,VALID,23.4407,VALID,112,VALID,0,
2014-01-08, 03:05:04,VALID,1009.11,VALID,0,VALID,104,VALID,0,VALID,23.4407,VALID,112,VALID,0,
2014-01-08, 03:06:04,VALID,1009.09,VALID,0,VALID,104,VALID,0,VALID,23.4407,VALID,112,VALID,0,
2014-01-08, 03:07:04,VALID,1009.12,VALID,0,VALID,104,VALID,0,VALID,23.4212,VALID,111,VALID,0,
2014-01-08, 03:08:04,VALID,1009.11,VALID,0,VALID,104,VALID,0,VALID,23.4212,VALID,112,VALID,0,
2014-01-08, 03:09:04,VALID,1009.1,VALID,0,VALID,104,VALID,0,VALID,23.4407,VALID,111,VALID,0,
2014-01-08, 03:10:04,VALID,1009.09,VALID,0,VALID,104,VALID,0,VALID,23.4212,VALID,111,VALID,0,
2014-01-08, 03:11:04,VALID,1009.08,VALID,0,VALID,104,VALID,0,VALID,23.4407,VALID,112,VALID,0,
2014-01-08, 03:12:04,VALID,1009.09,VALID,0,VALID,104,VALID,0,VALID,23.4407,VALID,112,VALID,0,
2014-01-08, 03:13:04,VALID,1009.1,VALID,0,VALID,104,VALID,0,VALID,23.4407,VALID,112,VALID,0,
2014-01-08, 03:14:04,VALID,1009.08,VALID,0,VALID,104,VALID,0,VALID,23.4212,VALID,112,VALID,0,
2014-01-08, 03:15:04,VALID,1009.13,VALID,0,VALID,104,VALID,0,VALID,23.4,VALID,112,VALID,0,
2014-01-08, 03:16:04,VALID,1009.09,VALID,0,VALID,104,VALID,0,VALID,23.4017,VALID,112,VALID,0,
2014-01-08, 03:17:04,VALID,1009.1,VALID,0,VALID,104,VALID,0,VALID,23.4212,VALID,112,VALID,0,
2014-01-08, 03:18:04,VALID,1009.1,VALID,0,VALID,104,VALID,0,VALID,23.4212,VALID,111,VALID,0,
2014-01-08, 03:19:04,VALID,1009.08,VALID,0,VALID,104,VALID,0,VALID,23.4407,VALID,111,VALID,0,
2014-01-08, 03:20:04,VALID,1009.07,VALID,0,VALID,104,VALID,0,VALID,23.4602,VALID,112,VALID,0,
2014-01-08, 03:21:04,VALID,1009.03,VALID,0,VALID,104,VALID,0,VALID,23.4602,VALID,112,VALID,0,
2014-01-08, 03:22:04,VALID,1009.02,VALID,0,VALID,104,VALID,0,VALID,23.4797,VALID,112,VALID,0,
2014-01-08, 03:23:04,VALID,1009.01,VALID,0,VALID,104,VALID,0,VALID,23.4992,VALID,112,VALID,0,
2014-01-08, 03:24:04,VALID,1009.02,VALID,0,VALID,104,VALID,0,VALID,23.4602,VALID,112,VALID,0,
2014-01-08, 03:25:04,VALID,1008.98,VALID,0,VALID,104,VALID,0,VALID,23.462,VALID,112,VALID,0,
2014-01-08, 03:26:04,VALID,1008.98,VALID,0,VALID,104,VALID,0,VALID,23.4407,VALID,112,VALID,0,
2014-01-08, 03:27:04,VALID,1008.95,VALID,0,VALID,104,VALID,0,VALID,23.4407,VALID,112,VALID,0,
2014-01-08, 03:28:04,VALID,1008.93,VALID,0,VALID,104,VALID,0,VALID,23.4407,VALID,111,VALID,0,
2014-01-08, 03:29:04,VALID,1008.93,VALID,0,VALID,104,VALID,0,VALID,23.4425,VALID,112,VALID,0,
2014-01-08, 03:30:04,VALID,1008.91,VALID,0,VALID,104,VALID,0,VALID,23.4212,VALID,112,VALID,0,
2014-01-08, 03:31:04,VALID,1008.93,VALID,0,VALID,104,VALID,0,VALID,23.4212,VALID,112,VALID,0,
2014-01-08, 03:32:04,VALID,1008.94,VALID,0,VALID,104,VALID,0,VALID,23.4212,VALID,112,VALID,0,
2014-01-08, 03:33:04,VALID,1008.96,VALID,0,VALID,104,VALID,0,VALID,23.4017,VALID,112,VALID,0,
2014-01-08, 03:34:04,VALID,1008.93,VALID,0,VALID,104,VALID,0,VALID,23.4017,VALID,111,VALID,0,
2014-01-08, 03:35:04,VALID,1008.96,VALID,0,VALID,104,VALID,0,VALID,23.4017,VALID,112,VALID,0,
2014-01-08, 03:36:04,VALID,1008.94,VALID,0,VALID,104,VALID,0.112112,VALID,23.4017,VALID,111,VALID,0,
2014-01-08, 03:37:04,VALID,1008.91,VALID,0,VALID,104,VALID,0,VALID,23.4017,VALID,112,VALID,0,
2014-01-08, 03:38:04,VALID,1008.91,VALID,0,VALID,104,VALID,0,VALID,23.3628,VALID,111,VALID,0,
2014-01-08, 03:39:04,VALID,1008.95,VALID,0,VALID,104,VALID,0,VALID,23.322,VALID,111,VALID,0,
2014-01-08, 03:40:04,VALID,1008.95,VALID,0,VALID,104,VALID,0,VALID,23.2831,VALID,111,VALID,0,
2014-01-08, 03:41:04,VALID,1008.99,VALID,0,VALID,104,VALID,0,VALID,23.2636,VALID,111,VALID,0,
2014-01-08, 03:42:04,VALID,1008.96,VALID,0,VALID,104,VALID,0,VALID,23.2848,VALID,111,VALID,0,
2014-01-08, 03:43:04,VALID,1008.99,VALID,0,VALID,104,VALID,0,VALID,23.2654,VALID,112,VALID,0,
2014-01-08, 03:44:04,VALID,1009,VALID,0,VALID,104,VALID,0,VALID,23.2459,VALID,111,VALID,0,
2014-01-08, 03:45:04,VALID,1009,VALID,0,VALID,104,VALID,0,VALID,23.2459,VALID,112,VALID,0,
2014-01-08, 03:46:04,VALID,1009.01,VALID,0,VALID,104,VALID,0,VALID,23.2459,VALID,112,VALID,0,
2014-01-08, 03:47:04,VALID,1009.01,VALID,0,VALID,104,VALID,0.112112,VALID,23.2069,VALID,112,VALID,0,
2014-01-08, 03:48:04,VALID,1008.99,VALID,0,VALID,104,VALID,0.112112,VALID,23.2069,VALID,111,VALID,0,
2014-01-08, 03:49:04,VALID,1009.01,VALID,0,VALID,104,VALID,0,VALID,23.2069,VALID,112,VALID,0,
2014-01-08, 03:50:04,VALID,1009.05,VALID,0,VALID,104,VALID,0,VALID,23.1662,VALID,111,VALID,0,
2014-01-08, 03:51:04,VALID,1009.05,VALID,0,VALID,104,VALID,0.112112,VALID,23.1874,VALID,112,VALID,0,
2014-01-08, 03:52:04,VALID,1009.06,VALID,0,VALID,104,VALID,0,VALID,23.1679,VALID,111,VALID,0,
2014-01-08, 03:53:04,VALID,1009.05,VALID,0,VALID,104,VALID,0,VALID,23.1679,VALID,111,VALID,0,
2014-01-08, 03:54:04,VALID,1009.08,VALID,0,VALID,104,VALID,0.112112,VALID,23.1662,VALID,112,VALID,0,
2014-01-08, 03:55:04,VALID,1009.07,VALID,0,VALID,104,VALID,0.112112,VALID,23.1874,VALID,111,VALID,0,
2014-01-08, 03:56:04,VALID,1009.09,VALID,0,VALID,104,VALID,0,VALID,23.1679,VALID,111,VALID,0,
2014-01-08, 03:57:04,VALID,1009.11,VALID,0,VALID,104,VALID,0,VALID,23.1679,VALID,111,VALID,0,
2014-01-08, 03:58:04,VALID,1009.12,VALID,0,VALID,104,VALID,0,VALID,23.1485,VALID,112,VALID,0,
2014-01-08, 03:59:04,VALID,1009.13,VALID,0,VALID,104,VALID,0,VALID,23.129,VALID,111,VALID,0,
2014-01-08, 04:00:04,VALID,1009.15,VALID,0,VALID,104,VALID,0,VALID,23.1095,VALID,112,VALID,0,
2014-01-08, 04:01:04,VALID,1009.13,VALID,0,VALID,104,VALID,0,VALID,23.09,VALID,112,VALID,0,
2014-01-08, 04:02:04,VALID,1009.18,VALID,0,VALID,104,VALID,0,VALID,23.09,VALID,112,VALID,0,
2014-01-08, 04:03:04,VALID,1009.2,VALID,0,VALID,104,VALID,0.112112,VALID,23.0688,VALID,112,VALID,0,
2014-01-08, 04:04:04,VALID,1009.21,VALID,0,VALID,104,VALID,0,VALID,23.09,VALID,112,VALID,0,
2014-01-08, 04:05:05,VALID,1009.24,VALID,0,VALID,104,VALID,0,VALID,23.1095,VALID,112,VALID,0,
2014-01-08, 04:06:05,VALID,1009.22,VALID,0,VALID,104,VALID,0,VALID,23.129,VALID,112,VALID,0,
2014-01-08, 04:07:05,VALID,1009.26,VALID,0,VALID,104,VALID,0,VALID,23.1485,VALID,111,VALID,0,
2014-01-08, 04:08:05,VALID,1009.25,VALID,0,VALID,104,VALID,0,VALID,23.1272,VALID,111,VALID,0,